Location: Newark
(34.9500°N, 139.9667°E)
Time: 19:29:12
(UTC+00:00)

Vanguard 2 Rocket - Pass Details

Date: 09 December 2019
Orbit: 554 x 3326 km, 32.9° (Epoch: 26 January)

Event Time Altitude Azimuth Distance (km) Brightness Sun altitude
Rises 10:40:26 0° 261° (W) 5,855 11.9 -38.5°
Reaches altitude 10° 10:45:00 10° 261° (W) 4,395 11.1 -39.5°
Enters shadow 10:53:40 54° 248° (WSW) 1,624 8.2 -41.2°
Maximum altitude 10:55:49 77° 177° (S) 1,257 - -41.7°
Drops below altitude 10° 11:01:48 10° 92° (E) 2,522 - -42.9°
Sets 11:03:47 0° 91° (E) 3,257 - -43.3°
